Location: Bannatyne
(13.0833°N, 59.5333°W)
Time: 00:11:15
(UTC+00:00)

Transit 4A - Pass Details

Date: 24 January 2021
Orbit: 866 x 978 km, 66.8° (Epoch: 03 March)

Event Time Altitude Azimuth Distance (km) Brightness Sun altitude
Exits shadow 07:55:49 11° 29° (NNE) 2,483 10.2 -35.7°
Maximum altitude 07:59:04 17° 64° (ENE) 2,108 10.2 -34.9°
Drops below altitude 10° 08:02:43 10° 103° (ESE) 2,537 11.0 -34.1°
Sets 08:06:06 0° 123° (ESE) 3,460 11.8 -33.3°
